Home   Weather   San Juan   Past weeks

Flag for Puerto Rico Past Weather in San Juan, Puerto Rico — Yesterday and Last 2 Weeks

Now
79 °F

Passing clouds.


Feels Like: 82 °F
Forecast: 79 / 83 °F
Wind: 12 mph from East

Location: Luis Munoz Marin

Current Time: Apr 29, 2017 at 9:25:15 pm

Latest Report: Apr 29, 2017 at 8:56 pm


Visibility: 10 mi

Pressure: 30.06 "Hg

Humidity: 79%

Dew Point: 72 °F

Location of San JuanLocation

Past Weather in San Juan — Graph

°F

San Juan Temperature Yesterday

Maximum temperature yesterday: 85 °F (at 11:56 am)
Minimum temperature yesterday: 77 °F (at 7:56 pm)
Average temperature yesterday: 80 °F

High & Low Weather Summary for the Past Weeks

 TemperatureHumidityPressure
High91 °F (Apr 25, 11:56 am)100% (Apr 17, 7:26 am)30.09 "Hg (Apr 17, 7:26 am)
Low75 °F (Apr 15, 4:56 am)57% (Apr 22, 11:56 am)29.87 "Hg (Apr 24, 5:56 pm)
Average81 °F78%29.99 "Hg
* Reported Apr 14 7:56 pm — Apr 29 7:56 pm, San Juan, Weather by CustomWeather, © 2017

Note: Actual official high and low records may vary slightly from our data, if they occured in-between our weather recording intervals... More about our weather records

Advertising

San Juan Weather History for the Previous 24 Hours

Scroll right to see more
 ConditionsComfort  
Time TempWeatherWind HumidityBarometerVisibility
7:56 pm
Sat, Apr 29
79 °FPassing clouds.13 mph82%30.06 "Hg10 mi
6:56 pm79 °FMostly cloudy.14 mph88%30.04 "Hg10 mi
5:56 pm79 °FMostly cloudy.10 mph90%30.02 "Hg10 mi
4:56 pm78 °FLight rain. Mostly cloudy.16 mph87%30.01 "Hg9 mi
3:56 pm80 °FLight rain. Mostly cloudy.17 mph85%30.01 "Hg9 mi
2:56 pm80 °FCloudy.14 mph94%30.02 "Hg10 mi
1:56 pm79 °FRain. Fog.8 mph97%30.04 "Hg5 mi
12:56 pm81 °FLight rain. Cloudy.16 mph85%30.06 "Hg9 mi
11:56 am84 °FBroken clouds.16 mph72%30.06 "Hg10 mi
10:56 am83 °FBroken clouds.15 mph72%30.08 "Hg10 mi
9:56 am83 °FBroken clouds.12 mph77%30.08 "Hg10 mi
8:56 am79 °FCloudy.10 mph88%30.09 "Hg10 mi
7:56 am77 °FBroken clouds.3 mph100%30.08 "Hg10 mi
6:56 am75 °FOvercast.10 mph100%30.06 "Hg10 mi
5:56 am76 °FLight rain. Mostly cloudy.8 mph97%30.05 "Hg8 mi
4:56 am78 °FLight rain. Partly cloudy.14 mph93%30.02 "Hg7 mi
3:56 am79 °FLight rain. Passing clouds.15 mph90%30.02 "Hg10 mi
2:56 am79 °FPassing clouds.13 mph90%30.02 "Hg10 mi
1:56 am79 °FPassing clouds.13 mph90%30.03 "Hg10 mi
12:56 am79 °FPassing clouds.12 mph90%30.05 "Hg10 mi
11:56 pm
Fri, Apr 28
79 °FPassing clouds.15 mph90%30.08 "Hg10 mi
10:56 pm79 °FPartly cloudy.13 mph94%30.08 "Hg10 mi
9:56 pm79 °FPartly cloudy.15 mph97%30.07 "Hg10 mi
Weather by CustomWeather, © 2017

See weather overviewHow to use our weather pages